This demonstration page uses our WeatherBlox Daily Observations layout. Learn more.

Left ArrowRight Arrow

Hourly Observations for February 17, 2016

Temp ( °F °C ) Dew Point ( °F °C ) Humidity (%) Winds ( mph kmh ) Pressure ( in mb ) Visibility ( mi km ) Precip ( " mm )
12:14 am 00:14 Cloudy 28 -2 27 -3 93 93 W 5 7 30.03 1017 2 2 N/A
12:34 am 00:34 Cloudy 28 -2 27 -3 93 93 WNW 3 6 30.03 1017 4 6 N/A
12:55 am 00:55 Cloudy 28 -2 27 -3 93 93 W 3 6 30.03 1017 5 8 N/A
1:14 am 01:14 Cloudy 28 -2 27 -3 93 93 W 3 6 30.03 1017 5 8 N/A
1:34 am 01:34 Cloudy 28 -2 27 -3 93 93 W 3 6 30.06 1018 5 8 N/A
1:55 am 01:55 Cloudy 30 -1 27 -3 86 86 N N/A 30.06 1018 5 8 N/A
2:14 am 02:14 Cloudy 30 -1 27 -3 86 86 W 3 6 30.06 1018 5 8 N/A
2:34 am 02:34 Cloudy 30 -1 27 -3 86 86 W 5 7 30.06 1018 5 8 N/A
2:55 am 02:55 Cloudy 30 -1 27 -3 86 86 WNW 6 9 30.09 1019 5 8 N/A
3:14 am 03:14 Cloudy 30 -1 27 -3 86 86 WNW 6 9 30.09 1019 5 8 N/A
3:34 am 03:34 Cloudy 30 -1 28 -2 93 93 WNW 7 11 30.09 1019 5 8 N/A
3:55 am 03:55 Cloudy 30 -1 28 -2 93 93 WNW 7 11 30.09 1019 4 6 N/A
4:14 am 04:14 Cloudy 30 -1 28 -2 93 93 WNW 8 13 30.09 1019 3 5 N/A
4:34 am 04:34 Cloudy 30 -1 28 -2 93 93 NW 8 13 30.09 1019 3 5 N/A
4:55 am 04:55 Cloudy 30 -1 28 -2 93 93 NW 9 15 30.12 1020 3 4 N/A
5:14 am 05:14 Cloudy 30 -1 28 -2 93 93 NW 9 15 30.12 1020 3 4 N/A
5:35 am 05:35 Cloudy 30 -1 30 -1 100 100 NW 9 15 30.12 1020 3 4 N/A
5:54 am 05:54 Cloudy 30 -1 28 -2 93 93 NW 8 13 30.12 1020 5 8 N/A
6:14 am 06:14 Cloudy 30 -1 28 -2 93 93 NNW 8 13 30.15 1021 5 8 N/A
6:35 am 06:35 Cloudy 30 -1 27 -3 86 86 NW 12 19 30.15 1021 7 11 N/A
6:54 am 06:54 Cloudy 30 -1 27 -3 86 86 NNW 8 13 30.15 1021 7 11 N/A
7:14 am 07:14 Cloudy 30 -1 27 -3 86 86 N 10 17 30.18 1022 7 11 N/A
7:35 am 07:35 Cloudy 30 -1 27 -3 86 86 NNW 8 13 30.18 1022 7 11 N/A
7:54 am 07:54 Cloudy 28 -2 25 -4 86 86 NW 9 15 30.21 1023 7 11 N/A
8:14 am 08:14 Cloudy 30 -1 25 -4 80 80 NW 7 11 30.21 1023 7 11 N/A
8:35 am 08:35 Cloudy 30 -1 25 -4 80 80 NW 7 11 30.24 1024 7 11 N/A
8:54 am 08:54 Cloudy 30 -1 25 -4 80 80 WNW 6 9 30.24 1024 10 16 N/A
9:14 am 09:14 Cloudy 30 -1 25 -4 80 80 WNW 6 9 30.24 1024 7 11 N/A
9:35 am 09:35 Cloudy 32 undefined 25 -4 75 75 WNW 5 7 30.24 1024 7 11 N/A
9:54 am 09:54 Cloudy 32 undefined 27 -3 80 80 WNW 6 9 30.24 1024 7 11 N/A
10:14 am 10:14 Cloudy 32 undefined 27 -3 80 80 WNW 6 9 30.24 1024 7 11 N/A
10:35 am 10:35 Cloudy 32 undefined 25 -4 75 75 WNW 3 6 30.24 1024 10 16 N/A
10:54 am 10:54 Cloudy 34 1 27 -3 75 75 WNW 5 7 30.27 1025 10 16 N/A
11:14 am 11:14 Cloudy 34 1 25 -4 70 70 WNW 6 9 30.27 1025 10 16 N/A
11:35 am 11:35 Cloudy 34 1 25 -4 70 70 WNW 5 7 30.27 1025 10 16 N/A
11:54 am 11:54 Cloudy 34 1 23 -5 65 65 WNW 7 11 30.27 1025 10 16 N/A
12:14 pm 12:14 Mostly Cloudy 36 2 23 -5 60 60 NW 6 9 30.27 1025 10 16 N/A
12:35 pm 12:35 Cloudy 36 2 25 -4 65 65 NW 7 11 30.27 1025 10 16 N/A
12:54 pm 12:54 Cloudy 36 2 23 -5 60 60 WNW 6 9 30.27 1025 10 16 N/A
1:14 pm 13:14 Cloudy 36 2 25 -4 65 65 WNW 6 9 30.27 1025 10 16 N/A
1:35 pm 13:35 Cloudy 36 2 23 -5 60 60 W 3 6 30.24 1024 10 16 N/A
1:54 pm 13:54 Mostly Cloudy 37 3 25 -4 60 60 W 8 13 30.27 1025 10 16 N/A
2:14 pm 14:14 Cloudy 39 4 25 -4 56 56 W 8 13 30.27 1025 10 16 N/A
2:35 pm 14:35 Cloudy 36 2 23 -5 60 60 W 3 6 30.27 1025 10 16 N/A
2:54 pm 14:54 Cloudy 36 2 23 -5 60 60 WNW 9 15 30.27 1025 10 16 N/A
3:14 pm 15:14 Cloudy 36 2 23 -5 60 60 WNW 8 13 30.27 1025 10 16 N/A
3:34 pm 15:34 Cloudy 36 2 23 -5 60 60 WNW 7 11 30.27 1025 10 16 N/A
3:54 pm 15:54 Cloudy 36 2 23 -5 60 60 NW 10 17 30.30 1026 10 16 N/A
4:15 pm 16:15 Cloudy 36 2 25 -4 65 65 W 10 17 30.30 1026 10 16 N/A
4:34 pm 16:34 Cloudy 36 2 23 -5 60 60 W 8 13 30.30 1026 10 16 N/A
4:54 pm 16:54 Cloudy 36 2 23 -5 60 60 NW 7 11 30.30 1026 10 16 N/A
5:15 pm 17:15 Cloudy 34 1 23 -5 65 65 NW 10 17 30.30 1026 10 16 N/A
5:34 pm 17:34 Cloudy 34 1 23 -5 65 65 NW 8 13 30.30 1026 10 16 N/A
5:54 pm 17:54 Cloudy 34 1 23 -5 65 65 NW 7 11 30.33 1027 10 16 N/A
6:15 pm 18:15 Cloudy 34 1 23 -5 65 65 NW 6 9 30.33 1027 10 16 N/A
6:34 pm 18:34 Cloudy 32 undefined 23 -5 69 69 NNW 5 7 30.33 1027 10 16 N/A
6:54 pm 18:54 Cloudy 32 undefined 23 -5 69 69 NW 5 7 30.33 1027 10 16 N/A
7:15 pm 19:15 Cloudy 32 undefined 25 -4 75 75 NNW 3 6 30.36 1028 10 16 N/A
7:34 pm 19:34 Cloudy 32 undefined 25 -4 75 75 NNW 5 7 30.36 1028 10 16 N/A
7:54 pm 19:54 Cloudy 32 undefined 25 -4 75 75 NNW 5 7 30.36 1028 10 16 N/A
8:15 pm 20:15 Cloudy 32 undefined 25 -4 75 75 NNW 8 13 30.36 1028 10 16 N/A
8:34 pm 20:34 Cloudy 32 undefined 25 -4 75 75 NW 5 7 30.36 1028 10 16 N/A
8:54 pm 20:54 Cloudy 32 undefined 23 -5 69 69 N N/A 30.36 1028 10 16 N/A
9:15 pm 21:15 Cloudy 32 undefined 25 -4 75 75 N N/A 30.36 1028 10 16 N/A
9:34 pm 21:34 Cloudy 32 undefined 23 -5 69 69 N N/A 30.36 1028 10 16 N/A
9:54 pm 21:54 Cloudy 32 undefined 23 -5 69 69 N N/A 30.36 1028 10 16 N/A
10:15 pm 22:15 Cloudy 30 -1 23 -5 75 75 WNW 3 6 30.36 1028 10 16 N/A
10:34 pm 22:34 Cloudy 30 -1 23 -5 75 75 N N/A 30.36 1028 10 16 N/A
10:54 pm 22:54 Cloudy 30 -1 25 -4 80 80 N 3 6 30.36 1028 10 16 N/A
11:15 pm 23:15 Cloudy 28 -2 25 -4 86 86 N 5 7 30.39 1029 10 16 N/A
11:34 pm 23:34 Cloudy 30 -1 25 -4 80 80 N 3 6 30.39 1029 10 16 N/A
11:54 pm 23:54 Cloudy 28 -2 25 -4 86 86 N 5 7 30.39 1029 10 16 N/A

Powered by AerisWeather